GW1480 Weather Reports


Display with metric or nautical units.
time (UTC)temp
F
wind
direction
speed
MPH
gust
MPH
rain 1hr
in
rain 24hr
in
rain mn
in
humidity
%
barometer
mb
20260503030942 39 233 0.0 0.0 0.00 0.00 0.02 94 1020.3
20260503030315 39 224 0.0 0.0 0.00 0.00 0.02 94 1019.9
20260503025735 40 223 0.0 0.0 0.00 0.00 0.02 93 1019.9
20260503025140 40 226 0.0 0.0 0.00 0.00 0.02 93 1019.9
20260503023940 41 224 0.0 0.0 0.00 0.00 0.02 92 1019.6
20260503023333 42 220 0.0 0.0 0.00 0.00 0.02 92 1019.9
20260503022730 42 230 0.0 0.0 0.00 0.00 0.02 92 1019.6
20260503022138 42 224 0.0 0.0 0.00 0.00 0.02 91 1019.6
20260503021544 43 224 0.0 0.0 0.00 0.00 0.02 90 1019.6
20260503020927 44 221 0.0 0.0 0.00 0.00 0.02 89 1019.6
20260503020342 44 230 0.0 0.0 0.00 0.00 0.02 89 1019.6
20260503015731 45 224 0.0 0.0 0.00 0.00 0.02 88 1019.6
20260503015115 46 225 0.0 0.0 0.00 0.00 0.02 87 1019.6
20260503014529 46 229 0.0 0.0 0.00 0.00 0.02 86 1019.6
20260503013946 47 226 0.0 0.0 0.00 0.00 0.02 84 1019.3
20260503012744 48 244 0.0 0.0 0.00 0.00 0.02 84 1018.9
20260503012116 48 231 0.0 0.0 0.00 0.00 0.02 83 1019.3
20260503011539 48 229 0.0 0.0 0.00 0.00 0.02 80 1018.9
20260503010928 49 229 0.0 0.0 0.00 0.00 0.02 79 1018.6
20260503010349 49 231 0.0 0.0 0.00 0.00 0.02 80 1018.9
20260503005711 49 230 0.0 0.0 0.00 0.00 0.02 79 1018.9
20260503005152 49 237 0.0 0.0 0.00 0.00 0.02 77 1018.6
20260503004515 50 249 0.0 0.0 0.00 0.00 0.02 77 1018.6
20260503003347 50 252 0.0 0.0 0.00 0.00 0.02 73 1018.6
20260503002754 50 233 0.0 0.0 0.00 0.00 0.02 77 1018.6
20260503002139 50 243 0.0 0.0 0.00 0.00 0.02 77 1018.6
20260503001523 50 233 0.0 0.0 0.00 0.00 0.02 69 1018.2
20260503000934 50 236 0.0 0.0 0.00 0.00 0.02 71 1018.2
20260503000335 51 243 0.0 0.0 0.00 0.00 0.02 69 1018.2
20260502235738 51 236 0.0 0.0 0.00 0.00 0.02 74 1018.2
20260502235138 51 237 0.0 0.0 0.00 0.00 0.02 67 1017.9
20260502233913 52 238 0.0 0.0 0.00 0.00 0.02 68 1017.9
20260502233328 53 257 0.0 0.0 0.00 0.00 0.02 66 1017.9
20260502232733 53 236 2.0 2.0 0.00 0.00 0.02 65 1017.9
20260502232129 53 226 0.0 0.0 0.00 0.00 0.02 67 1017.9
20260502231535 53 253 0.0 0.0 0.00 0.00 0.02 62 1017.9
20260502230916 54 243 2.0 2.0 0.00 0.00 0.02 55 1017.9
20260502224540 55 231 1.0 2.0 0.00 0.00 0.02 54 1017.9
20260502223917 55 241 1.0 2.0 0.00 0.00 0.02 51 1017.9
20260502223344 56 249 2.0 5.0 0.00 0.00 0.02 50 1017.6
20260502222134 55 220 3.0 5.0 0.00 0.00 0.02 47 1017.9
20260502221552 55 208 7.0 10.0 0.00 0.00 0.02 48 1017.6
20260502220938 56 232 0.0 0.0 0.00 0.00 0.02 49 1017.6
20260502220347 56 240 0.0 0.0 0.00 0.00 0.02 50 1017.6
20260502215710 56 249 0.0 2.0 0.00 0.00 0.02 47 1017.6
20260502215151 56 257 2.0 2.0 0.00 0.00 0.00 48 1017.6
20260502214543 56 258 3.0 5.0 0.00 0.00 0.00 52 1017.6
20260502213333 56 255 0.0 0.0 0.00 0.00 0.00 49 1017.6
20260502212710 56 281 0.0 0.0 0.00 0.00 0.00 54 1017.6
20260502212110 56 227 3.0 5.0 0.00 0.00 0.00 49 1017.2
20260502211511 55 249 1.0 2.0 0.00 0.00 0.00 48 1017.6
20260502210951 55 207 0.0 2.0 0.00 0.00 0.00 48 1017.2
20260502210311 54 264 1.0 2.0 0.00 0.00 0.00 54 1017.9
20260502205714 54 273 0.0 0.0 0.00 0.00 0.00 52 1017.6
20260502204542 54 262 1.0 2.0 0.00 0.00 0.00 51 1017.6
20260502203945 54 271 2.0 5.0 0.00 0.00 0.00 48 1017.9
20260502203345 54 274 3.0 5.0 0.00 0.00 0.00 51 1017.9
20260502202729 54 246 0.0 0.0 0.00 0.00 0.00 52 1017.6
20260502202123 54 254 0.0 2.0 0.00 0.00 0.00 53 1017.6
20260502201542 55 242 3.0 5.0 0.00 0.00 0.00 52 1017.9
20260502200940 56 277 1.0 2.0 0.00 0.00 0.00 52 1017.6
20260502200327 57 259 3.0 5.0 0.00 0.00 0.00 50 1017.9
20260502195746 57 261 3.0 5.0 0.00 0.00 0.00 48 1017.9
20260502195113 57 145 6.0 10.0 0.00 0.00 0.00 43 1017.6
20260502194517 56 250 0.0 2.0 0.00 0.00 0.00 46 1017.9
20260502193939 56 276 4.0 7.0 0.00 0.00 0.00 45 1017.9
20260502193323 55 243 0.0 0.0 0.00 0.00 0.00 46 1017.9
20260502192114 56 272 3.0 5.0 0.00 0.00 0.00 51 1018.2
20260502190930 56 270 3.0 5.0 0.00 0.00 0.00 52 1018.2
20260502190322 56 229 2.0 5.0 0.00 0.00 0.00 47 1018.2
20260502185712 56 239 3.0 5.0 0.00 0.00 0.00 49 1018.6
20260502185118 56 187 3.0 5.0 0.00 0.00 0.00 45 1018.2
20260502184513 56 211 0.0 2.0 0.00 0.00 0.00 47 1018.2
20260502183935 55 239 5.0 7.0 0.00 0.00 0.00 51 1018.6
20260502183322 55 112 0.0 2.0 0.00 0.00 0.00 53 1018.6
20260502182151 55 240 1.0 2.0 0.00 0.00 0.00 49 1018.6
20260502181552 55 216 0.0 0.0 0.00 0.00 0.00 50 1018.6
20260502180942 55 230 3.0 5.0 0.00 0.00 0.00 49 1018.6
20260502180316 55 235 4.0 5.0 0.00 0.00 0.00 50 1018.6
20260502163930 54 260 4.0 5.0 0.00 0.00 0.00 54 1019.3
20260502163338 54 272 0.0 0.0 0.00 0.00 0.00 50 1019.3
20260502162735 54 256 7.0 10.0 0.00 0.00 0.00 49 1018.9
20260502162134 54 250 0.0 2.0 0.00 0.00 0.00 51 1019.3
20260502161514 55 271 0.0 2.0 0.00 0.00 0.00 53 1019.3
20260502152129 55 307 1.0 5.0 0.00 0.00 0.00 58 1019.3
20260502151544 55 323 3.0 5.0 0.00 0.00 0.00 56 1019.3
20260502150917 55 254 2.0 5.0 0.00 0.00 0.00 58 1019.3
20260502150345 55 293 1.0 2.0 0.00 0.00 0.00 55 1019.6
20260502130324 46 233 0.0 0.0 0.00 0.00 0.00 86 1019.6
20260502123319 39 251 0.0 0.0 0.00 0.00 0.00 98 1019.6
20260502122727 38 280 0.0 0.0 0.00 0.00 0.00 98 1019.3
20260502122144 37 276 0.0 0.0 0.00 0.00 0.00 98 1019.6
20260502121540 36 264 0.0 0.0 0.00 0.00 0.00 98 1019.3
20260502120923 36 271 0.0 0.0 0.00 0.00 0.00 98 1019.6
20260502115717 34 252 0.0 0.0 0.00 0.00 0.00 98 1019.3
20260502114526 34 254 0.0 0.0 0.00 0.00 0.00 98 1019.3
20260502113932 34 255 0.0 0.0 0.00 0.00 0.00 98 1019.6
20260502113336 34 257 0.0 0.0 0.00 0.00 0.00 98 1019.6
20260502112731 34 249 0.0 0.0 0.00 0.00 0.00 98 1019.6
20260502111521 33 256 0.0 0.0 0.00 0.00 0.00 98 1018.9
20260502110923 33 253 0.0 0.0 0.00 0.00 0.00 98 1019.3
20260502105718 33 252 0.0 0.0 0.00 0.00 0.00 98 1019.3
20260502105151 33 254 0.0 0.0 0.00 0.00 0.00 98 1018.9
20260502104512 33 252 0.0 0.0 0.00 0.00 0.00 98 1018.9
20260502103944 33 252 0.0 0.0 0.00 0.00 0.00 98 1018.6
20260502103330 33 241 0.0 0.0 0.00 0.00 0.00 98 1018.6
20260502102722 33 257 0.0 0.0 0.00 0.00 0.00 98 1018.9
20260502102128 33 253 0.0 0.0 0.00 0.00 0.00 98 1018.9
20260502100935 33 252 0.0 0.0 0.00 0.00 0.00 98 1019.3
20260502100347 33 254 0.0 0.0 0.00 0.00 0.00 98 1019.3
20260502090948 34 252 0.0 0.0 0.00 0.00 0.00 98 1019.3
20260502090333 34 252 0.0 0.0 0.00 0.00 0.00 98 1019.6
20260502071526 35 252 0.0 0.0 0.00 0.00 0.00 97 1018.6
20260502070913 36 252 0.0 0.0 0.00 0.00 0.00 97 1018.9
20260502070337 36 255 0.0 0.0 0.00 0.00 0.00 97 1018.9
20260502065712 36 251 0.0 0.0 0.00 0.00 0.00 97 1018.9
20260502065141 36 252 0.0 0.0 0.00 0.00 0.00 97 1018.9
20260502063913 37 252 0.0 0.0 0.00 0.00 0.00 97 1018.9
20260502063326 37 252 0.0 0.0 0.00 0.00 0.00 97 1019.3
20260502062727 38 252 0.0 0.0 0.00 0.00 0.00 97 1018.9
20260502062149 38 252 0.0 0.0 0.00 0.00 0.00 97 1018.9
20260502061532 38 256 0.0 0.0 0.00 0.00 0.00 97 1019.6
20260502060950 38 257 0.0 0.0 0.00 0.00 0.00 96 1019.6
20260502060338 38 230 0.0 0.0 0.00 0.00 0.00 96 1019.6
20260502055713 39 250 0.0 0.0 0.00 0.00 0.00 96 1019.6
20260502055137 39 247 0.0 0.0 0.00 0.00 0.00 96 1019.6
20260502054539 39 240 0.0 0.0 0.00 0.00 0.00 96 1019.3
20260502053936 40 248 0.0 0.0 0.00 0.00 0.00 96 1019.3
20260502053342 40 260 0.0 0.0 0.00 0.00 0.00 96 1019.3
20260502052742 41 251 0.0 0.0 0.00 0.00 0.00 95 1019.6
20260502052136 41 256 0.0 0.0 0.00 0.00 0.00 95 1019.6
20260502051537 41 243 0.0 0.0 0.00 0.00 0.00 95 1019.6
20260502050947 42 251 0.0 0.0 0.00 0.00 0.00 95 1019.6
20260502045713 42 255 0.0 0.0 0.00 0.00 0.00 95 1019.6
20260502045152 42 259 0.0 0.0 0.00 0.00 0.00 95 1019.6
20260502043951 43 253 0.0 0.0 0.00 0.00 0.00 94 1019.9
20260502042725 43 254 0.0 0.0 0.00 0.00 0.00 94 1019.6
20260502042129 43 255 0.0 0.0 0.00 0.00 0.00 94 1019.6
20260502041554 44 256 0.0 0.0 0.00 0.00 0.00 94 1019.3
20260502040935 44 249 0.0 0.0 0.00 0.00 0.00 93 1019.6
20260502040353 44 248 0.0 0.0 0.00 0.00 0.00 93 1019.6
20260502035735 45 249 0.0 0.0 0.00 0.00 0.00 91 1019.6
20260502033952 46 247 0.0 0.0 0.00 0.00 0.00 90 1019.6
20260502033341 47 255 0.0 0.0 0.00 0.00 0.00 89 1019.3
20260502032121 48 258 0.0 0.0 0.00 0.00 0.00 88 1019.6
20260502031527 48 254 0.0 0.0 0.00 0.00 0.00 87 1019.6